Regional Weather Roundup
Issued by NWS

Home | Current Version | Previous Version | Text Only | Print | Product List | Glossary On
Versions: 1 2 3 4 5 6 7 8 9 10 11 12 13 14 15 16 17 18 19 20 21 22 23 24 25 26 27 28 29 30 31 32 33 34 35 36 37 38 39 40 41 42 43 44 45 46 47 48 49 50
758
ASUS43 KMKX 252211
RWRWI

WISCONSIN REGIONAL WEATHER ROUNDUP
NATIONAL WEATHER SERVICE MILWAUKEE/SULLIVAN WI
400 PM CST SAT FEB 25 2017

NOTE: "FAIR" INDICATES FEW OR NO CLOUDS BELOW 12,000 FEET WITH NO
SIGNIFICANT WEATHER AND/OR OBSTRUCTIONS TO VISIBILITY.

WIZ001-002-006>008-014>016-023>028-252300-
NORTHWEST WISCONSIN

CITY           SKY/WX    TMP DP  RH WIND       PRES   REMARKS
SUPERIOR ARPT  MOSUNNY   29  13  50 W10       29.81F WCI  20
ASHLAND        SUNNY     27   9  46 W12       29.81S WCI  17
HAYWARD        MOSUNNY   28   9  44 VRB6      29.80S WCI  22
SIREN          PTSUNNY   31  12  44 W17       29.83F WCI  20
CUMBERLAND     SUNNY     30  10  43 W9G15     29.83F WCI  22
RICE LAKE      MOSUNNY   29  11  46 W12       29.86S WCI  20
CHETEK         MOSUNNY   29  10  45 W8        29.85F WCI  21
LADYSMITH      SUNNY     28  10  47 W8        29.84S WCI  19
EAU CLAIRE     SUNNY     26   9  48 W13       29.88S WCI  15
MENOMONIE      SUNNY     30  10  42 W8        29.89S WCI  23
NEW RICHMOND   MOSUNNY   31  11  42 W13       29.87S WCI  22
OSCEOLA        CLOUDY    32  14  47 W10       29.90S WCI  24
$$

WIZ003>005-009-010-017-018-252300-
NORTH CENTRAL WISCONSIN

CITY           SKY/WX    TMP DP  RH WIND       PRES   REMARKS
MANITOWISH WTR MOSUNNY   21   9  59 W12G23    29.75R WCI   9
ARBOR VITAE    SUNNY     24  10  56 W12G18      N/A  WCI  12
WOODRUFF       SUNNY     24  10  56 W12G18      N/A  WCI  12
RHINELANDER    SUNNY     23   8  52 W15G24    29.75S WCI  10
EAGLE RIVER    SUNNY     20   8  60 W10G20    29.73S WCI   9
LAND O LAKES   MOSUNNY   20  11  68 NW8G17    29.74S WCI  11
PHILLIPS       MOSUNNY   25   6  46 W9        29.78R WCI  15
TOMAHAWK       SUNNY     25   7  47 W9G17     29.78S WCI  15
MEDFORD        SUNNY     23   6  47 W14G22    29.80S WCI  11
MERRILL        NOT AVBL
$$

WIZ029-030-035-036-043>047-252300-
CENTRAL WISCONSIN

CITY           SKY/WX    TMP DP  RH WIND       PRES   REMARKS
WAUSAU         SUNNY     22   7  52 W15       29.81R WCI   9
MOSINEE        SUNNY     21   9  58 W14       29.84R WCI   8
MARSHFIELD     SUNNY     23   6  48 W16G22    29.83R WCI  10
STEVENS POINT  SUNNY     21   5  51 W9G21     29.85S WCI  10
WAUPACA        SUNNY     25   8  49 W14G22    29.87S WCI  13
WAUTOMA        SUNNY     24  11  57 W16       29.88R WCI  11
WISC RAPIDS    SUNNY     25   7  46 NW14      29.88R WCI  13
CAMP DOUGLAS   SUNNY     25   8  49 W14G23    29.90R WCI  13
$$

WIZ011>013-019>022-031-037>040-048>050-252300-
NORTHEAST WISCONSIN

CITY           SKY/WX    TMP DP  RH WIND       PRES   REMARKS
ANTIGO         SUNNY     20   7  58 W17       29.78S WCI   5
SHAWANO        PTSUNNY   25  11  55 CALM      29.84R
OCONTO         PTSUNNY   24  12  61 W16G22    29.82R WCI  10
STURGEON BAY   CLOUDY    25  16  68 W13G24    29.79R WCI  14
GREEN BAY      SUNNY     23  12  62 W15G26    29.84R WCI  10
MANITOWOC      PTSUNNY   22  12  65 W20       29.84R WCI   7
APPLETON       MOSUNNY   21   9  58 W15G23    29.83R WCI   8
CLINTONVILLE   MOSUNNY   23   9  54 W12G17    29.85R WCI  12
OSHKOSH        SUNNY     22  10  60 W9        29.86R WCI  12
$$

WIZ032>034-041-042-053>061-252300-
SOUTHWEST WISCONSIN

CITY           SKY/WX    TMP DP  RH WIND       PRES   REMARKS
LA CROSSE      SUNNY     28  11  48 W12       29.96R WCI  18
SPARTA         SUNNY     27  11  51 W10       29.94R WCI  17
VIROQUA        SUNNY     24  11  56 W7        29.92R WCI  16
BOSCOBEL       SUNNY     28   9  44 NW9       29.97R WCI  19
PRAIRIE DU CHI SUNNY     28  11  49 W8        29.99R WCI  20
PLATTEVILLE    SUNNY     26  17  67 W5        29.96R WCI  20
$$

WIZ056-057-062-063-064-067-068-252300-
SOUTH CENTRAL WISCONSIN

CITY           SKY/WX    TMP DP  RH WIND       PRES   REMARKS
REEDSBURG      SUNNY     24  10  53 W12       29.92R WCI  13
BARABOO/DELLS  SUNNY     24   9  53 W9        29.90R WCI  14
LONE ROCK      SUNNY     27  11  51 W13       29.95R WCI  16
MINERAL POINT  SUNNY     27  18  69 W5        29.93R WCI  21
MADISON        MOSUNNY   24  11  57 NW12G23   29.91R WCI  13
MIDDLETON      SUNNY     26  16  64 NW6       29.92R WCI  19
WATERTOWN      PTSUNNY   22  14  70 W9        29.90R WCI  12
MONROE         SUNNY     27  12  54 W15G23    29.93R WCI  15
JANESVILLE     PTSUNNY   27  16  63 W16       29.92R WCI  14
$$

WIZ051-052-058>065-066-070>072-252300-
SOUTHEAST WISCONSIN

CITY           SKY/WX    TMP DP  RH WIND       PRES   REMARKS
MILWAUKEE      PTSUNNY   23  11  60 W14       29.90R WCI  11
WAUKESHA       CLOUDY    19  12  73 W17G26    29.90R WCI   4
MILWAUKEE/TIMM PTSUNNY   21  10  63 W13G24    29.90R WCI   9
RACINE         CLOUDY    22  11  62 NW14G21   29.92R WCI   9
KENOSHA        PTSUNNY   24  14  65 W17       29.91R WCI  11
FOND DU LAC    SUNNY     22  10  60 W14       29.87R WCI   9
SHEBOYGAN      PTSUNNY   22  12  65 W14G21    29.85R WCI   9
WEST BEND      FLURRIES  21  18  86 W7        29.87R WCI  13
JUNEAU         MOSUNNY   21  13  70 W6        29.90R WCI  13
$$

LSZ147-162-252300-
LAKE SUPERIOR

STATION/POSITION TIME  TEMP    WIND        PRES    WAVE
                       AIR SEA DIR/SP/G            HT/PER
                 (UTC) (F)     (DEG/KT/KT) (MB)    (FT/S)
DEVILS ISLAND    2200   26     250/ 17/ 21 1009.4S
PORT WING        2130   26     270/ 11/ 18 1009.8S
SAXON HARBOR     2140   27     290/ 10/ 12 1009.5S
$$

LMZ867-665-643>646-252300-
LAKE MICHIGAN

STATION/POSITION TIME  TEMP    WIND        PRES    WAVE
                       AIR SEA DIR/SP/G            HT/PER
                 (UTC) (F)     (DEG/KT/KT) (MB)    (FT/S)
CHAMBERS ISLAND  2140   26      CALM  /  2 1007.8R
NORTHPORT PIER   2140   26     290/  1/  2 1007.5R
SISTER BAY       2135   25        CALM       N/A
KEWAUNEE LAKESHO 2148   24     290/ 16/ 22 1009.0R
SHEBOYGAN LAKESH 2200   22     290/ 15/ 19 1012.2R
PORT WASHINGTON  2140   23     280/ 12/ 20 1012.9R
MILWAUKEE LAKESH 2150   21     280/ 15/ 18   N/A
KENOSHA   LAKESH 2200   23     290/ 12/ 18 1013.5
$$

TC  - TEMPERATURE IN CELSIUS
VSB - VISIBILITY IN STATUTE MILES
WCI - WIND CHILL INDEX
HX  - HEAT INDEX





USA.gov is the U.S. government's official web portal to all federal, state and local government web resources and services.